Presure
92 95 91 95 111 82 85 85 88 78 82 84 82 85 85 80 78 146 91 77 75 82 83 95 104 81 82 96 140 96 109 100 139 96 137 149 135 133 139 146 137 141 152
84 98 93 95 97 90 88 89 93 82 83 84 81 84 79 82 77 81 76 81 82 83 99 79 77 91 81 83 136 134 150 78 149 80 89 158 161 164 169 165 154 149 145
120 93 91 90 90 91 94 76 73 85 87 80 79 83 84 82 82 122 92 76 148 82 77 77 78 78 122 90 89 127 123 150 124 138 125 143 100 110 94 95 144 144 169
120 81 84 85 91 93 94 86 83 87 82 82 78 79 80 76 76 85 77 77 86 78 78 70 75 83 83 123 133 109 117 122 123 130 127 126 104 139 133 158 115 124 96
102 83 105 84 99 121 96 94 143 83 92 120 81 76 75 127 78 80 84 78 75 72 70 69 79 79 80 103 84 119 111 127 103 128 126 130 141 123 102 92 150 140 120
130 91 84 74 80 129 135 133 132 127 125 82 85 79 141 73 88 77 78 77 74 120 82 108 85 88 142 109 116 93 103 123 124 114 112 112 135 148 128 131 123 127 132
116 113 132 112 97 87 131 149 93 76 99 86 80 80 126 120 81 93 81 111 113 126 76 89 137 82 93 133 119 122 124 126 118 125 97 139 135 109 139 121 84 130 145
114 132 141 97 140 149 137 87 78 118 150 148 99 123 103 71 83 73 72 104 79 99 76 81 83 80 110 138 137 145 146 137 109 132 131 129 114 84 82 117 175 147 87
112 127 87 122 129 124 132 119 88 82 132 86 136 131 131 131 77 78 109 76 133 143 141 143 118 127 133 128 117 122 127 112 152 156 155 118 111 152 165 174 121 102 148
72 118 109 75 126 106 130 135 140 78 77 75 110 128 79 114 132 133 139 144 144 139 108 128 100 133 133 81 137 92 157 82 93 86 81 86 92 95 91 159 174 163 181
85 131 116 74 75 125 76 82 135 142 141 103 135 97 81 84 103 82 123 137 115 119 109 95 93 118 124 78 84 104 154 133 82 84 140 144 177 167 158 170 181 181 174
130 160 142 108 78 92 96 75 124 97 70 75 133 136 110 144 84 89 132 86 83 79 85 84 74 109 86 112 109 142 112 108 145 128 121 178 168 170 160 166 164 174 169
141 103 139 147 141 110 155 77 75 92 123 119 136 126 105 121 133 124 135 135 136 77 90 126 88 125 90 86 97 159 79 82 78 126 180 156 159 157 155 150 173 168 159
103 167 155 155 149 86 82 96 90 92 93 91 119 138 168 133 129 138 137 138 138 144 147 145 149 72 81 134 153 133 144 133 125 141 157 151 150 153 160 158 165 164 156
154 77 107 143 94 154 121 128 139 138 116 132 130 83 89 160 135 139 133 121 121 127 139 140 100 78 146 154 151 150 135 151 144 158 154 154 143 153 158 158 161 162 158
85 143 118 163 149 137 151 134 98 110 94 115 131 125 118 160 155 132 139 127 115 138 151 171 91 160 151 120 136 158 161 157 158 149 153 148 151 154 155 151 158 165 155
171 162 142 156 129 152 151 82 83 138 127 93 149 145 138 133 133 143 161 151 130 130 141 153 172 177 182 184 131 125 124 163 170 169 171 150 145 143 152 154 156 153 162
142 157 152 134 147 160 104 152 147 146 135 129 159 143 159 150 167 157 145 168 154 149 146 135 156 143 162 162 132 136 125 151 154 162 157 151 149 150 152 144 160 162 151
116 142 128 142 133 143 146 150 154 123 121 119 136 152 120 148 158 146 161 156 166 164 159 157 159 138 150 147 146 148 152 156 152 175 162 155 154 148 148 152 155 154 155
129 132 134 89 143 83 142 147 145 144 153 154 144 123 120 129 140 157 155 165 154 140 167 169 169 165 158 135 156 169 135 158 169 173 169 162 156 147 147 143 152 156 136
143 142 134 123 109 152 157 67 147 149 133 145 148 149 134 140 137 147 134 154 147 151 152 156 166 150 139 155 156 124 133 151 153 160 167 166 169 160 153 148 153 151 145
153 164 145 157 116 128 146 140 170 132 134 157 146 136 137 136 137 143 132 130 149 156 136 146 149 148 152 150 161 125 134 149 143 150 164 174 172 163 149 151 152 156 138
172 149 160 179 152 157 158 103 159 154 124 150 142 138 140 134 139 140 149 156 166 149 145 145 143 139 145 124 133 140 145 149 141 146 143 160 172 158 147 151 150 142 148
176 180 153 163 151 154 139 155 134 140 121 118 135 141 159 154 143 147 134 125 152 151 147 138 133 142 148 148 139 147 158 148 149 157 143 141 151 155 155 147 142 140 141
165 178 178 143 83 158 121 142 158 135 148 130 136 132 145 147 145 150 149 155 140 143 146 149 146 126 139 154 133 135 150 149 150 142 143 145 148 150 158 150 159 139 135
187 166 171 150 173 160 155 159 118 158 138 149 140 118 148 120 119 137 136 153 150 150 160 158 150 133 138 141 144 143 143 141 142 144 143 145 150 153 149 161 153 150 138
Wind_Speed
16 15 12 14 20 12 12 13 12 11 11 14 12 13 12 7 6 22 4 7 8 9 10 7 7 14 15 13 17 13 15 15 21 17 23 25 26 27 26 33 32 34 40
15 21 19 17 17 15 14 13 12 11 10 12 11 11 8 9 3 5 4 3 5 6 8 11 13 12 14 16 20 19 26 18 24 20 20 39 44 45 46 47 39 40 38
37 23 15 13 16 17 17 11 8 11 11 8 5 7 7 5 4 28 6 2 31 6 7 9 11 11 19 17 12 23 23 33 25 24 28 27 26 27 23 24 35 35 53
36 18 18 17 18 20 20 16 13 15 11 11 7 6 5 4 3 4 5 7 8 9 9 5 9 16 17 22 26 20 26 28 29 28 30 30 24 34 33 43 31 32 29
35 23 30 20 29 38 24 21 40 13 22 31 12 8 6 32 7 9 9 9 9 6 6 4 15 16 11 24 23 29 27 30 26 32 32 35 37 33 29 28 41 40 35
50 29 21 19 21 44 43 45 44 42 42 16 17 13 34 8 15 11 12 13 13 31 20 26 21 15 37 29 29 25 27 32 34 33 32 31 39 42 36 39 36 39 41
50 50 52 44 30 24 42 44 26 18 26 21 19 18 34 33 17 23 15 30 31 36 18 23 34 19 26 36 33 35 36 36 36 40 30 43 42 35 43 39 35 43 50
48 56 55 38 52 51 48 29 24 35 44 40 27 44 30 13 21 13 12 33 18 29 23 25 27 26 33 40 40 41 42 42 36 44 44 43 39 36 35 40 51 48 40
52 58 40 54 48 46 47 43 33 31 40 29 45 45 45 40 23 21 39 20 43 42 40 38 35 39 41 41 38 41 44 40 49 50 49 42 43 48 51 51 45 48 50
36 58 57 31 54 48 49 49 48 29 28 24 40 46 28 40 43 47 49 50 48 44 38 42 34 42 43 32 46 36 51 36 40 42 30 38 48 49 50 52 52 50 51
32 63 61 33 34 55 34 40 48 50 50 40 50 36 33 34 47 29 53 51 43 45 42 37 37 42 44 39 43 44 47 46 40 45 47 48 51 49 50 51 51 50 49
65 69 69 57 40 46 50 33 55 47 24 33 50 52 45 49 25 43 56 33 33 31 35 37 34 44 38 45 46 51 48 48 50 50 48 48 51 50 51 52 51 50 49
73 56 69 71 67 58 59 40 36 46 57 56 55 56 50 54 53 50 59 55 55 32 39 50 41 49 42 43 45 49 35 47 47 55 46 51 53 53 52 51 54 53 49
65 77 77 74 72 50 48 54 51 51 52 49 54 56 53 58 57 58 56 56 58 58 57 55 52 34 42 55 51 55 52 54 56 56 52 55 57 56 56 56 56 55 50
82 47 70 72 46 71 66 67 67 64 64 61 56 48 47 50 57 59 58 52 62 61 62 57 46 46 53 52 54 53 57 55 56 53 53 55 57 59 57 57 57 57 52
50 81 71 78 76 73 72 70 54 61 58 61 60 62 63 56 58 50 54 61 56 60 60 53 50 53 53 58 58 53 53 54 54 57 54 59 59 58 59 58 59 59 55
91 90 79 81 72 76 75 49 50 67 68 57 64 64 62 63 64 63 56 57 64 65 61 56 50 51 51 49 60 59 59 51 52 48 48 58 62 61 61 60 62 59 59
84 89 86 73 73 79 58 75 76 74 70 70 68 64 61 63 62 63 63 53 56 60 62 64 57 58 48 49 60 61 61 54 53 50 54 58 60 60 61 63 60 59 61
87 88 81 84 79 79 78 78 79 70 74 63 67 67 74 67 66 66 60 58 55 57 60 60 58 61 55 57 58 56 55 54 54 51 53 57 58 61 63 63 63 63 62
90 90 88 46 85 36 83 81 80 75 76 75 71 78 80 78 70 67 61 61 60 66 60 58 57 55 55 61 54 51 63 55 52 53 54 55 58 63 63 66 65 65 64
104 102 94 84 74 93 92 26 86 86 77 77 78 76 74 73 74 67 71 64 65 64 62 61 62 58 62 58 57 67 66 55 53 53 55 56 57 58 60 65 64 66 67
107 103 96 102 88 86 88 88 88 83 80 84 79 75 75 78 76 74 76 73 67 68 69 65 63 62 61 61 61 69 64 56 58 57 56 56 55 55 61 59 62 64 65
115 111 103 99 98 94 91 62 92 95 74 82 81 80 84 84 83 78 75 75 76 69 68 67 67 69 66 72 68 65 61 59 62 60 61 57 53 57 63 58 62 66 66
109 115 109 101 100 100 104 99 88 89 84 86 84 85 84 86 84 83 75 69 78 76 72 74 76 70 69 66 68 66 64 62 64 63 64 64 60 60 62 63 64 65 67
119 115 114 109 31 104 96 102 98 95 98 91 85 89 93 90 89 88 86 84 78 76 76 79 75 81 75 70 74 72 68 67 68 68 68 67 66 65 65 65 63 68 68
125 111 110 109 111 107 107 104 78 103 97 101 95 83 99 85 77 85 86 90 87 86 88 85 82 80 79 76 76 75 73 72 71 73 71 71 72 69 67 68 69 66 69
Wind_Direction
238 238 239 233 219 182 174 167 169 163 155 150 138 140 136 119 101 230 85 49 40 32 26 351 325 24 15 329 275 325 312 317 283 316 285 278 286 288 283 285 287 284 282
237 245 231 234 229 215 218 208 223 171 167 164 156 153 149 153 139 135 52 43 13 1 308 31 30 337 4 351 278 277 284 343 280 343 332 290 287 287 285 281 284 283 286
219 241 223 222 226 228 228 204 209 196 194 178 171 169 186 177 182 264 283 16 250 337 24 21 9 0 288 333 326 285 290 283 289 290 296 289 313 303 308 308 285 288 292
221 214 213 218 236 236 233 212 212 210 195 199 203 203 221 244 286 265 334 330 315 345 350 23 358 336 331 284 282 298 297 293 295 290 297 301 306 288 297 293 300 304 308
241 232 226 212 222 226 241 238 224 222 231 239 225 222 243 257 281 279 284 301 322 347 322 312 328 327 302 298 319 294 298 290 305 296 302 300 293 302 315 319 292 300 298
219 232 229 228 222 229 225 229 230 238 244 234 228 232 235 251 261 275 281 293 315 281 300 290 308 298 266 294 291 305 300 294 295 304 305 303 294 292 296 298 301 301 299
237 244 223 239 237 233 232 233 231 237 234 252 239 244 245 249 253 258 267 268 276 274 300 293 273 304 302 276 288 288 290 290 293 293 306 292 294 300 297 299 321 297 294
226 222 224 244 227 229 230 236 238 239 239 238 244 249 245 268 251 285 303 264 294 281 296 290 294 302 285 275 280 282 285 289 298 293 294 293 297 311 315 297 297 299 313
239 226 223 236 226 228 236 234 237 239 239 247 238 242 248 247 256 254 268 275 262 265 265 266 284 279 276 282 288 288 289 297 292 291 292 302 302 295 295 299 293 299 303
241 241 252 234 232 254 233 234 237 250 249 255 250 251 260 265 252 256 258 259 263 266 280 267 289 272 274 301 281 298 288 308 302 309 305 312 305 302 311 301 299 302 302
244 235 243 240 245 238 241 238 238 242 242 253 249 255 264 266 266 272 265 264 268 266 275 284 287 277 277 307 302 294 286 285 303 307 299 300 295 297 299 300 305 306 302
234 226 233 238 244 244 248 255 241 255 266 262 249 247 255 250 261 269 261 267 269 284 280 283 296 280 295 284 289 286 295 294 290 292 294 294 297 300 302 302 304 307 307
227 237 234 232 236 246 238 255 260 253 244 251 245 251 262 257 252 256 259 263 264 281 272 270 284 278 283 288 289 284 299 297 306 290 294 297 300 302 303 303 308 308 308
238 227 227 230 233 245 251 253 254 256 257 256 251 248 258 253 255 255 258 261 264 267 267 266 267 288 285 280 282 286 287 290 291 294 296 298 299 302 303 305 307 309 309
230 269 241 234 251 233 244 244 243 241 250 246 253 264 264 260 254 256 259 264 268 269 269 271 278 286 275 279 281 284 289 290 293 296 296 296 298 300 302 305 307 308 310
256 236 239 228 233 239 233 242 254 250 259 252 246 251 256 258 259 264 264 261 267 266 267 267 275 273 275 281 283 285 286 288 291 292 293 295 296 298 301 304 305 308 309
230 231 240 235 238 239 238 263 262 243 249 257 246 248 250 253 255 257 262 261 262 265 269 271 270 273 276 278 283 287 290 289 290 287 287 293 296 299 300 303 304 305 308
233 235 239 240 241 236 262 243 243 242 247 250 250 249 255 255 262 259 258 266 263 266 269 271 270 274 272 274 283 286 288 284 287 287 288 290 293 295 298 301 303 305 306
233 236 233 239 238 242 243 243 245 257 249 255 246 252 257 251 258 255 262 261 267 267 267 267 269 274 274 277 279 280 282 285 287 289 286 287 290 294 297 299 301 303 306
235 234 236 251 242 244 242 244 245 245 248 248 247 251 255 255 253 261 260 265 262 262 273 274 274 272 272 277 276 283 283 286 293 290 287 286 287 292 294 299 300 303 303
233 233 235 229 249 243 247 268 247 248 241 246 247 248 251 255 257 258 261 262 261 267 270 274 276 270 269 277 279 281 281 287 288 289 289 287 286 287 290 296 299 301 305
226 234 235 237 247 238 246 244 249 243 243 249 249 251 253 254 254 257 258 259 261 267 263 268 272 272 275 275 281 277 280 283 285 288 288 287 289 286 291 295 296 300 303
232 230 231 237 234 238 239 249 247 247 251 249 248 248 250 250 252 254 261 265 268 263 264 267 267 269 271 271 272 276 279 283 281 285 286 293 290 286 291 293 295 300 302
235 240 228 234 233 232 238 240 247 247 244 247 246 248 254 255 256 260 253 266 266 266 263 261 263 267 271 273 272 278 284 282 284 287 285 286 289 289 289 290 292 295 298
233 240 242 234 247 230 250 239 241 244 245 246 255 245 250 253 254 257 259 262 257 260 263 268 267 267 268 278 271 272 280 281 283 280 284 286 287 289 290 288 288 292 296
244 229 236 241 240 229 231 237 240 241 248 245 252 261 248 261 254 254 255 259 261 262 264 266 267 267 270 273 274 274 275 275 278 282 283 283 287 288 288 290 290 290 293